Weather observations for the past three days for
Russian Mission
Imperial (Metric)
Date Time (akdt) Wind (mph) Vis. (mi.) Weather Sky Cond. Temperature (ºF) Relative Humidity Wind Chill (°F) Heat Index (°F) Pressure Precipitation (in)
Air Dwpt 6 hour altimeter (in) sea level (mb) 1 hr 3 hr 6 hr
Max. Min.
15 15:56 SW 7 2.00 Light Rain Fog/Mist BKN009 OVC014 48.9 48 50 46 97% 46 29.71 1006.3 0.02 0.03
15 14:56 SW 9 3.00 Light Rain Fog/Mist BKN009 BKN014 OVC022 48 46.9 96% 44 29.7 1005.9
15 13:56 SW 8 6.00 Fog/Mist FEW009 SCT015 OVC021 48 46 93% 45 29.69 1005.5
15 12:56 SW 7 7.00 Overcast BKN010 BKN016 OVC027 48 46.9 96% 45 29.67 1005.1 0.01
15 11:56 Vrbl 6 5.00 Light Rain Fog/Mist SCT007 BKN011 OVC050 46.9 46 97% 45 29.67 1005.0 0.01
15 10:56 SW 5 5.00 Light Rain Fog/Mist BKN006 OVC012 46.9 46.9 100% 45 29.66 1004.6
15 09:56 SW 8 6.00 Light Rain Fog/Mist BKN014 OVC024 46 46 46 45 100% 42 29.64 1004.1 0.01 0.11
15 08:56 Vrbl 5 3.00 Light Rain Fog/Mist BKN009 OVC014 46 46 100% 44 29.63 1003.5 0.02
15 07:56 SW 6 10.00 Rain BKN010 OVC013 45 45 100% 42 29.61 1003.0 0.05
15 06:56 SW 5 10.00 Light Rain OVC016 45 45 100% 43 29.6 1002.5 0.01 0.03
15 05:56 SW 8 4.00 Light Rain Fog/Mist BKN010 OVC037 45 45 100% 41 29.58 1002.0 0.01
15 04:56 S 6 4.00 Light Rain Fog/Mist SCT009 BKN015 OVC033 45 45 100% 42 29.57 1001.6 0.01
15 03:56 SW 8 4.00 Light Rain Fog/Mist BKN008 OVC013 45 45 46 45 100% 41 29.56 1001.3 0.01 0.04
15 02:56 S 7 10.00 Light Rain OVC011 45 45 100% 42 29.55 1001.0 0.01
15 01:56 S 9 5.00 Light Rain Fog/Mist BKN011 BKN017 OVC029 45 45 100% 41 29.54 1000.6
15 00:56 SW 8 4.00 Light Rain Fog/Mist BKN007 OVC011 45 45 100% 41 29.52 1000.0 0.01 0.02
14 23:56 S 7 3.00 Light Rain Fog/Mist OVC011 45 45 100% 42 29.51 999.5
14 22:56 SW 8 10.00 Light Rain BKN016 OVC055 46 45 96% 42 29.49 999.0 0.01
14 21:56 SW 12 G 18 2.50 Fog/Mist FEW008 BKN012 OVC047 46 45 46.9 45 96% 41 29.48 998.5 0.11
14 20:56 SW 9 G 17 2.50 Light Rain Fog/Mist BKN009 BKN023 OVC041 46.9 46 97% 43 29.47 998.1 0.01
14 19:56 S 9 3.00 Light Rain Fog/Mist OVC009 46.9 46 97% 43 29.46 997.9 0.01
14 18:56 S 13 7.00 Light Rain BKN009 OVC014 46 45 96% 41 29.45 997.6 0.04 0.09
14 17:56 SW 9 G 16 9.00 Light Rain SCT011 BKN019 OVC024 46 45 96% 42 29.45 997.6 0.02
14 15:56 S 12 10.00 Light Rain BKN011 OVC015 45 43 45 44.1 93% 40 29.44 997.3 0.06 0.14
14 14:56 S 10 G 17 10.00 Rain FEW009 OVC022 44.1 43 96% 39 29.43 997.0 0.07
14 13:56 S 13 10.00 Light Rain BKN009 OVC014 45 44.1 97% 39 29.41 996.3 0.01
14 12:56 S 7 2.50 Light Rain Fog/Mist OVC007 44.1 44.1 100% 41 29.4 995.8
14 11:56 S 13 G 22 2.50 Fog/Mist OVC009 45 44.1 97% 39 29.37 994.8
14 10:56 S 14 G 21 3.00 Light Rain Fog/Mist BKN007 OVC011 44.1 44.1 100% 38 29.36 994.4
14 09:56 S 13 G 20 2.50 Fog/Mist OVC009 44.1 44.1 46.9 44.1 100% 38 29.34 993.9 0.01 0.03
14 08:56 S 12 G 18 2.50 Light Rain Fog/Mist OVC007 44.1 44.1 100% 39 29.32 993.3
14 06:56 Vrbl 7 2.50 Light Rain Fog/Mist OVC007 46 46 100% 43 29.3 992.4 0.01 0.02
14 00:56 W 6 10.00 Rain SCT033 BKN041 OVC050 46.9 46.9 100% 45 29.34 993.8 0.06 0.18
13 23:56 W 5 10.00 Light Rain SCT020 BKN036 OVC055 48 48 100% 47 29.35 994.2 0.04
13 22:56 W 5 10.00 Light Rain FEW013 OVC049 48 48 100% 47 29.37 994.7 0.08
13 21:56 W 3 9.00 Rain SCT017 BKN025 OVC038 48.9 48 52 48.9 97% 29.39 995.3 0.13 0.15
13 20:56 Vrbl 3 10.00 Light Rain OVC038 50 48 93% 29.39 995.6 0.02
13 19:56 SW 5 10.00 Light Rain SCT043 OVC055 51.1 46.9 86% 29.41 996.1
13 18:56 S 5 10.00 Light Rain FEW033 BKN047 OVC055 52 46 80% 29.43 996.8
13 17:56 SE 3 10.00 Overcast FEW019 OVC055 52 45 77% 29.44 997.3
13 16:56 SE 6 10.00 Overcast FEW028 OVC048 52 45 77% 29.45 997.7
13 15:56 S 5 10.00 Overcast FEW016 SCT030 OVC090 52 45 52 48.9 77% 29.46 998.0
13 14:56 SE 5 10.00 Overcast FEW015 BKN033 OVC110 52 46 80% 29.48 998.6
13 13:56 SE 6 10.00 Overcast SCT014 BKN020 OVC025 51.1 46 83% 29.5 999.2
13 12:56 SE 3 10.00 Overcast BKN014 OVC020 50 46 86% 29.51 999.6
13 11:56 Vrbl 3 10.00 Overcast BKN008 BKN017 OVC025 50 46.9 89% 29.52 1000.0
13 10:56 Vrbl 3 10.00 Overcast BKN010 OVC015 48.9 46.9 93% 29.53 1000.3
13 09:56 Calm 10.00 Overcast BKN011 OVC017 48 45 48 46 89% 29.53 1000.3
13 08:56 Calm 10.00 Overcast BKN023 OVC055 48 45 89% 29.53 1000.4
13 07:56 Calm 10.00 Overcast BKN018 OVC055 46.9 45 93% 29.54 1000.5
13 06:56 SW 3 10.00 Overcast OVC014 46.9 45 93% 29.53 1000.4
13 05:56 W 3 10.00 Overcast OVC012 46.9 46 97% 29.52 999.9
13 04:56 SW 3 10.00 Overcast BKN018 BKN025 OVC055 48 46 93% 29.52 999.8
13 03:56 SW 9 10.00 Overcast BKN010 OVC016 48 46.9 52 48 96% 44 29.5 999.3 0.03
13 02:56 S 14 G 24 9.00 Light Rain OVC005 48 48 100% 43 29.49 998.8 0.03
13 01:56 S 14 G 18 6.00 Light Rain Fog/Mist OVC007 48.9 48 97% 44 29.47 998.3
13 00:56 S 15 G 22 10.00 Overcast OVC009 48.9 48 97% 44 29.45 997.7
12 23:56 S 18 G 25 10.00 Overcast OVC013 50 46.9 89% 44 29.43 996.8
12 22:56 S 18 G 28 10.00 Overcast BKN016 OVC025 51.1 46.9 86% 29.4 996.0
12 21:56 S 13 G 20 10.00 Overcast OVC016 52 48.9 55.9 52 89% 29.39 995.6 0.13
12 20:56 S 14 G 21 7.00 Light Rain OVC012 52 50 93% 29.38 995.1
12 19:56 S 13 7.00 Light Rain BKN010 BKN041 OVC050 53.1 52 96% 29.37 994.7 0.11
12 18:56 SE 9 G 17 5.00 Light Rain Fog/Mist FEW008 BKN013 OVC020 54 53.1 97% 29.36 994.6 0.01 0.02
12 17:56 SE 12 G 16 10.00 Overcast BKN013 BKN030 OVC040 55 52 90% 29.38 995.1 0.01
12 16:56 SE 13 G 17 10.00 Light Rain BKN014 BKN029 OVC039 54 52 93% 29.4 995.7
Date Time (akdt) Wind (mph) Vis. (mi.) Weather Sky Cond. Air Dwpt Max. Min. Relative Humidity Wind Chill (°F) Heat Index (°F) altimeter (in) sea level (mb) 1 hr 3 hr 6 hr
6 hour
Temperature (ºF) Pressure Precipitation (in)